Simultaneous Nadir Overpasses (SNOs) Predictions

Prediction of SNOs between AQUA and GOES-15 Satellite Orbit:

Table of predicted SNOs for the next 14.0 days since TLE Epoch: 1/11/2014
Index Date Time (AQUA) AQUA Lat,Lon GOES-15 Lat,Lon Distance(km) Time Diff (sec)
1 01/11/2014 10:50:35 0.68,-138.60 -0.13,-134.89 423.02 80
2 01/13/2014 10:38:20 0.05,-135.63 -0.12,-134.96 76.67 80
3 01/15/2014 10:26:05 -0.62,-132.66 -0.12,-135.03 269.55 80
4 01/15/2014 22:47:28 -0.49,-137.84 0.12,-135.05 318.08 80
5 01/17/2014 22:35:12 0.16,-134.87 0.12,-135.11 27.87 80
6 01/19/2014 22:22:56 0.84,-131.89 0.12,-135.17 373.54 80
7 01/20/2014 10:44:10 0.25,-137.04 -0.12,-135.19 210.73 80
8 01/22/2014 10:31:52 -0.35,-134.05 -0.12,-135.24 134.51 80
9 01/22/2014 22:53:15 -0.72,-139.24 0.13,-135.25 453.62 80
10 01/24/2014 10:19:34 -0.99,-131.07 -0.12,-135.29 479.19 80
11 01/24/2014 22:40:57 -0.07,-136.26 0.12,-135.30 109.02 80




NCC Satellite Simultaneous Nadir Overpasses (SNOs) Prediction Service
